Notices

What's New in latest Release from April 7th, 2021:

- Updated Glossary, including Speed of Maximum Gust, and Total Hourly Precipitation

- Updated national and regional climate services offices contacts and prices information

- Addition of station inventory lists for 1981-2010, 1971-2000, and 1961-1990 Normals.

If you haven't already, please take our survey and provide feedback about our website: https://eccc.sondage-survey.ca/f/LanguageSelection.aspx?s=442ca660-fcf1-47c0-95a9-59707d6fd709

Hourly Data Report for April 05, 2021

WIARTON A
ONTARIO
Current Station Operator: NAVCAN

44°44'39.000" N
81°06'31.000" W
221.90 m
6119499
71633
YVV

Download Data

Hourly Data (April 2021)
Hourly Data Report for April 5, 2021
TIME
LST
Temp Definition
°C
Dew Point Definition
°C
Rel Hum Definition
%
Precip. Amount Definition
mm

Wind Dir Definition
10's deg

Wind Spd Definition
km/h
Visibility Definition
km
Stn Press Definition
kPa
Hmdx Definition


Wind Chill Definition


Weather Definition


00:00 1.8 0.6 92   11 8 24.1 99.50     LegendNANA
01:00 2.9 0.0 81   35 7 24.1 99.52     Cloudy
02:00 2.1 0.8 91   16 3 24.1 99.53     LegendNANA
03:00 2.9 0.6 85   36 2 24.1 99.49     LegendNANA
04:00 2.9 -0.4 79   11 13 24.1 99.38     Mostly Cloudy
05:00 5.0 -1.9 61   36 1 24.1 99.35     LegendNANA
06:00 4.5 -2.4 61   12 8 24.1 99.38     LegendNANA
07:00 6.2 -0.9 60   9 6 24.1 99.40     Mostly Cloudy
08:00 9.0 -2.3 45   11 8 24.1 99.42     LegendNANA
09:00 10.6 -2.4 40   10 7 24.1 99.45     LegendNANA
10:00 9.1 0.8 56   34 5 24.1 99.43     Mostly Cloudy
11:00 9.5 0.5 53   1 9 24.1 99.42     LegendNANA
12:00 9.7 0.9 54   3 3 24.1 99.39     LegendNANA
13:00 10.4 1.1 52   36 5 24.1 99.32     Cloudy
14:00 8.1 1.4 63   31 5 24.1 99.25     LegendNANA
15:00 12.9 1.6 46   3 7 24.1 99.15     LegendNANA
16:00 12.9 1.3 45   2 7 24.1 99.08     Mainly Clear
17:00 12.7 -0.3 41   6 15 24.1 99.09     LegendNANA
18:00 8.4 0.3 56   1 4 24.1 99.10     LegendNANA
19:00 7.7 0.3 60   8 4 24.1 99.09     Mostly Cloudy
20:00 6.7 -0.7 59   35 4 24.1 99.11     LegendNANA
21:00 6.0 -1.9 57   3 6 24.1 99.14     LegendNANA
22:00 4.9 -0.6 67   36 2 24.1 99.12     Mostly Cloudy
23:00 2.8 0.0 82   8 5 24.1 99.10     LegendNANA

Notes on Data Quality.

Legend

  • E = Estimated
  • M = Missing
  • NA = Not Available*
  • [empty] = Indicates an unobserved value
Date modified: